| time (UTC) | temp F | wind direction | speed MPH | gust MPH | rain 1hr in | rain 24hr in | rain mn in | humidity % | barometer mb |
| 20260831134435 | 74 | 237 | 1.0 | 3.0 | 0.00 | 0.01 | 0.01 | 88 | 1020.7 |
| 20260831133934 | 73 | 181 | 3.0 | 3.0 | 0.00 | 0.01 | 0.01 | 90 | 1020.8 |
| 20260831133434 | 73 | 143 | 4.0 | 4.0 | 0.00 | 0.01 | 0.01 | 90 | 1020.9 |
| 20260831132930 | 72 | 144 | 1.0 | 1.0 | 0.00 | 0.01 | 0.01 | 92 | 1021.1 |
| 20260831132425 | 72 | 136 | 0.0 | 1.0 | 0.00 | 0.01 | 0.01 | 93 | 1021.0 |
| 20260831131924 | 71 | 135 | 0.0 | 3.0 | 0.00 | 0.01 | 0.01 | 94 | 1020.9 |
| 20260831131420 | 71 | 136 | 0.0 | 0.0 | 0.00 | 0.01 | 0.01 | 94 | 1020.8 |
| 20260831130916 | 71 | 137 | 0.0 | 0.0 | 0.00 | 0.01 | 0.01 | 94 | 1020.7 |
| 20260831130411 | 70 | 130 | 1.0 | 4.0 | 0.00 | 0.01 | 0.01 | 94 | 1020.8 |
| 20260831125910 | 70 | 112 | 2.0 | 3.0 | 0.00 | 0.01 | 0.01 | 94 | 1020.8 |
| 20260831125405 | 70 | 111 | 0.0 | 3.0 | 0.00 | 0.01 | 0.01 | 94 | 1020.9 |
| 20260831124901 | 70 | 108 | 2.0 | 1.0 | 0.00 | 0.01 | 0.01 | 94 | 1020.8 |
| 20260831124356 | 70 | 107 | 0.0 | 0.0 | 0.00 | 0.01 | 0.01 | 94 | 1020.9 |
| 20260831123851 | 70 | 107 | 0.0 | 0.0 | 0.00 | 0.01 | 0.01 | 94 | 1020.8 |
| 20260831123350 | 70 | 108 | 1.0 | 3.0 | 0.00 | 0.01 | 0.01 | 94 | 1020.7 |
| 20260831122845 | 70 | 102 | 2.0 | 3.0 | 0.00 | 0.01 | 0.01 | 94 | 1020.7 |
| 20260831122340 | 70 | 101 | 0.0 | 3.0 | 0.00 | 0.01 | 0.01 | 94 | 1020.8 |
| 20260831121840 | 70 | 60 | 1.0 | 1.0 | 0.00 | 0.01 | 0.01 | 94 | 1020.9 |
| 20260831121337 | 70 | 73 | 1.0 | 0.0 | 0.00 | 0.01 | 0.01 | 94 | 1020.8 |
| 20260831120832 | 70 | 73 | 1.0 | 1.0 | 0.00 | 0.01 | 0.01 | 94 | 1020.9 |
| 20260831120326 | 70 | 28 | 0.0 | 1.0 | 0.00 | 0.01 | 0.01 | 94 | 1020.9 |
| 20260831115821 | 69 | 268 | 2.0 | 4.0 | 0.00 | 0.01 | 0.01 | 95 | 1020.9 |
| 20260831115318 | 69 | 221 | 3.0 | 3.0 | 0.05 | 0.01 | 0.01 | 95 | 1020.9 |
| 20260831114817 | 69 | 99 | 0.0 | 4.0 | 0.05 | 0.01 | 0.01 | 95 | 1021.0 |
| 20260831114315 | 69 | 121 | 1.0 | 3.0 | 0.00 | 0.00 | 0.00 | 95 | 1020.9 |
| 20260831113811 | 69 | 16 | 1.0 | 1.0 | 0.00 | 0.00 | 0.00 | 95 | 1021.1 |
| 20260831113306 | 69 | 19 | 0.0 | 0.0 | 0.00 | 0.00 | 0.00 | 95 | 1021.0 |
| 20260831112800 | 69 | 20 | 0.0 | 0.0 | 0.00 | 0.00 | 0.00 | 95 | 1021.0 |
| 20260831112255 | 69 | 20 | 0.0 | 0.0 | 0.00 | 0.00 | 0.00 | 95 | 1020.9 |
| 20260831111750 | 69 | 19 | 0.0 | 1.0 | 0.00 | 0.00 | 0.00 | 95 | 1020.7 |
| 20260831111247 | 69 | 20 | 0.0 | 1.0 | 0.00 | 0.00 | 0.00 | 94 | 1020.5 |
| 20260831110743 | 69 | 27 | 0.0 | 0.0 | 0.00 | 0.00 | 0.00 | 94 | 1020.6 |
| 20260831110237 | 69 | 27 | 0.0 | 0.0 | 0.00 | 0.00 | 0.00 | 94 | 1020.7 |
| 20260831105736 | 69 | 27 | 0.0 | 0.0 | 0.00 | 0.00 | 0.00 | 93 | 1020.4 |
| 20260831105232 | 69 | 27 | 0.0 | 0.0 | 0.00 | 0.00 | 0.00 | 93 | 1020.4 |
| 20260831104726 | 69 | 27 | 0.0 | 0.0 | 0.00 | 0.00 | 0.00 | 93 | 1020.3 |
| 20260831104224 | 69 | 27 | 0.0 | 0.0 | 0.00 | 0.00 | 0.00 | 93 | 1020.3 |
| 20260831103723 | 69 | 27 | 0.0 | 0.0 | 0.00 | 0.00 | 0.00 | 93 | 1020.4 |
| 20260831103219 | 69 | 322 | 0.0 | 1.0 | 0.00 | 0.00 | 0.00 | 93 | 1020.3 |
| 20260831102718 | 69 | 348 | 0.0 | 0.0 | 0.00 | 0.00 | 0.00 | 93 | 1020.3 |
| 20260831102214 | 69 | 352 | 0.0 | 1.0 | 0.00 | 0.00 | 0.00 | 93 | 1020.2 |
| 20260831101709 | 69 | 66 | 1.0 | 1.0 | 0.00 | 0.00 | 0.00 | 93 | 1020.3 |
| 20260831101204 | 69 | 118 | 0.0 | 1.0 | 0.00 | 0.00 | 0.00 | 93 | 1020.2 |
| 20260831100700 | 69 | 118 | 1.0 | 1.0 | 0.00 | 0.00 | 0.00 | 93 | 1020.3 |
| 20260831100156 | 69 | 121 | 0.0 | 1.0 | 0.00 | 0.00 | 0.00 | 93 | 1020.1 |
| 20260831095654 | 69 | 116 | 3.0 | 4.0 | 0.00 | 0.00 | 0.00 | 93 | 1020.1 |
| 20260831095149 | 69 | 120 | 0.0 | 1.0 | 0.00 | 0.00 | 0.00 | 93 | 1020.1 |
| 20260831094644 | 69 | 98 | 0.0 | 3.0 | 0.00 | 0.00 | 0.00 | 94 | 1019.9 |
| 20260831094140 | 69 | 137 | 1.0 | 1.0 | 0.00 | 0.00 | 0.00 | 93 | 1019.9 |
| 20260831093636 | 69 | 136 | 0.0 | 1.0 | 0.00 | 0.00 | 0.00 | 93 | 1020.1 |
| 20260831093132 | 69 | 131 | 0.0 | 1.0 | 0.00 | 0.00 | 0.00 | 94 | 1020.2 |
| 20260831092628 | 69 | 112 | 0.0 | 1.0 | 0.00 | 0.00 | 0.00 | 94 | 1020.3 |
| 20260831092123 | 69 | 213 | 0.0 | 1.0 | 0.00 | 0.00 | 0.00 | 94 | 1020.2 |
| 20260831091623 | 69 | 213 | 0.0 | 1.0 | 0.00 | 0.00 | 0.00 | 94 | 1020.2 |
| 20260831091118 | 69 | 212 | 0.0 | 0.0 | 0.00 | 0.00 | 0.00 | 94 | 1020.2 |
| 20260831090614 | 69 | 208 | 0.0 | 1.0 | 0.00 | 0.00 | 0.00 | 94 | 1020.3 |
| 20260831090110 | 69 | 208 | 2.0 | 3.0 | 0.00 | 0.00 | 0.00 | 94 | 1020.3 |
| 20260831085605 | 69 | 149 | 1.0 | 1.0 | 0.00 | 0.00 | 0.00 | 94 | 1020.1 |
| 20260831085100 | 69 | 149 | 2.0 | 3.0 | 0.00 | 0.00 | 0.00 | 94 | 1020.3 |
| 20260831084556 | 69 | 142 | 0.0 | 1.0 | 0.00 | 0.00 | 0.00 | 94 | 1020.1 |
| 20260831084052 | 69 | 125 | 0.0 | 0.0 | 0.00 | 0.00 | 0.00 | 94 | 1020.2 |
| 20260831083547 | 69 | 125 | 0.0 | 0.0 | 0.00 | 0.00 | 0.00 | 94 | 1020.2 |
| 20260831083042 | 69 | 125 | 0.0 | 1.0 | 0.00 | 0.00 | 0.00 | 93 | 1019.9 |
| 20260831082535 | 69 | 126 | 0.0 | 1.0 | 0.00 | 0.00 | 0.00 | 93 | 1019.9 |
| 20260831082031 | 69 | 119 | 1.0 | 4.0 | 0.00 | 0.00 | 0.00 | 93 | 1020.2 |
| 20260831081527 | 69 | 107 | 2.0 | 3.0 | 0.00 | 0.00 | 0.00 | 94 | 1020.2 |
| 20260831081022 | 69 | 129 | 2.0 | 1.0 | 0.00 | 0.00 | 0.00 | 94 | 1020.2 |
| 20260831080516 | 69 | 128 | 0.0 | 1.0 | 0.00 | 0.00 | 0.00 | 95 | 1020.4 |
| 20260831080012 | 68 | 128 | 3.0 | 3.0 | 0.00 | 0.00 | 0.00 | 95 | 1020.2 |
| 20260831075507 | 68 | 128 | 0.0 | 1.0 | 0.00 | 0.00 | 0.00 | 95 | 1020.2 |
| 20260831075003 | 68 | 128 | 0.0 | 1.0 | 0.00 | 0.00 | 0.00 | 95 | 1020.2 |
| 20260831074502 | 68 | 128 | 0.0 | 1.0 | 0.00 | 0.00 | 0.00 | 95 | 1020.2 |
| 20260831073957 | 68 | 128 | 0.0 | 0.0 | 0.00 | 0.00 | 0.00 | 95 | 1020.1 |
| 20260831073456 | 69 | 128 | 0.0 | 1.0 | 0.00 | 0.00 | 0.00 | 95 | 1019.9 |
| 20260831072955 | 69 | 128 | 1.0 | 3.0 | 0.00 | 0.00 | 0.00 | 95 | 1020.3 |
| 20260831072452 | 69 | 126 | 0.0 | 0.0 | 0.00 | 0.00 | 0.00 | 95 | 1020.4 |
| 20260831071948 | 69 | 126 | 1.0 | 1.0 | 0.00 | 0.00 | 0.00 | 95 | 1020.3 |
| 20260831071447 | 69 | 126 | 1.0 | 1.0 | 0.00 | 0.00 | 0.00 | 95 | 1020.2 |
| 20260831070942 | 69 | 126 | 2.0 | 3.0 | 0.00 | 0.00 | 0.00 | 95 | 1020.3 |
| 20260831070441 | 69 | 154 | 0.0 | 0.0 | 0.00 | 0.00 | 0.00 | 95 | 1020.4 |
| 20260831065941 | 69 | 154 | 0.0 | 0.0 | 0.00 | 0.00 | 0.00 | 95 | 1020.6 |
| 20260831065439 | 69 | 155 | 0.0 | 0.0 | 0.00 | 0.00 | 0.00 | 95 | 1020.6 |
| 20260831064934 | 69 | 139 | 0.0 | 1.0 | 0.00 | 0.00 | 0.00 | 95 | 1020.4 |
| 20260831064429 | 69 | 135 | 0.0 | 3.0 | 0.00 | 0.00 | 0.00 | 95 | 1020.5 |
| 20260831063925 | 69 | 141 | 1.0 | 1.0 | 0.00 | 0.00 | 0.00 | 95 | 1020.5 |
| 20260831063420 | 69 | 141 | 0.0 | 3.0 | 0.00 | 0.00 | 0.00 | 95 | 1020.7 |
| 20260831062919 | 69 | 122 | 0.0 | 1.0 | 0.00 | 0.00 | 0.00 | 96 | 1020.6 |
| 20260831062415 | 69 | 122 | 0.0 | 0.0 | 0.00 | 0.00 | 0.00 | 96 | 1020.6 |
| 20260831061914 | 69 | 122 | 1.0 | 1.0 | 0.00 | 0.00 | 0.00 | 96 | 1020.8 |
| 20260831061413 | 69 | 122 | 0.0 | 1.0 | 0.00 | 0.00 | 0.00 | 96 | 1020.8 |
| 20260831060909 | 69 | 121 | 0.0 | 1.0 | 0.00 | 0.00 | 0.00 | 96 | 1020.7 |
| 20260831060404 | 69 | 121 | 1.0 | 1.0 | 0.00 | 0.00 | 0.00 | 96 | 1020.8 |
| 20260831055904 | 69 | 113 | 2.0 | 3.0 | 0.00 | 0.00 | 0.00 | 96 | 1020.8 |
| 20260831055359 | 69 | 107 | 2.0 | 3.0 | 0.00 | 0.00 | 0.00 | 96 | 1020.7 |
| 20260831054854 | 69 | 105 | 2.0 | 1.0 | 0.00 | 0.00 | 0.00 | 96 | 1020.8 |
| 20260831054349 | 69 | 103 | 2.0 | 1.0 | 0.00 | 0.00 | 0.00 | 96 | 1020.9 |
| 20260831053848 | 69 | 112 | 3.0 | 3.0 | 0.00 | 0.00 | 0.00 | 96 | 1021.0 |
| 20260831053346 | 69 | 122 | 1.0 | 1.0 | 0.00 | 0.00 | 0.00 | 96 | 1021.2 |
| 20260831052841 | 69 | 122 | 0.0 | 1.0 | 0.00 | 0.00 | 0.00 | 96 | 1021.1 |
| 20260831052340 | 69 | 78 | 1.0 | 3.0 | 0.00 | 0.00 | 0.00 | 96 | 1021.2 |
| 20260831051839 | 69 | 55 | 0.0 | 0.0 | 0.00 | 0.00 | 0.00 | 96 | 1021.3 |
| 20260831051337 | 69 | 55 | 0.0 | 0.0 | 0.00 | 0.00 | 0.00 | 95 | 1021.2 |
| 20260831050832 | 69 | 55 | 0.0 | 1.0 | 0.00 | 0.00 | 0.00 | 95 | 1021.2 |
| 20260831050332 | 69 | 70 | 3.0 | 3.0 | 0.00 | 0.00 | 0.00 | 95 | 1021.2 |
| 20260831045826 | 69 | 20 | 0.0 | 1.0 | 0.00 | 0.00 | 0.00 | 95 | 1021.3 |
| 20260831045320 | 70 | 20 | 2.0 | 3.0 | 0.00 | 0.00 | 0.00 | 95 | 1021.3 |
| 20260831044815 | 70 | 56 | 2.0 | 1.0 | 0.00 | 0.00 | 0.00 | 94 | 1021.2 |
| 20260831044310 | 70 | 131 | 0.0 | 1.0 | 0.00 | 0.00 | 0.00 | 94 | 1021.1 |
| 20260831043807 | 70 | 52 | 1.0 | 1.0 | 0.00 | 0.00 | 0.00 | 94 | 1021.2 |
| 20260831043306 | 70 | 49 | 2.0 | 3.0 | 0.00 | 0.00 | 0.00 | 95 | 1021.3 |
| 20260831042801 | 70 | 11 | 4.0 | 4.0 | 0.00 | 0.00 | 0.00 | 95 | 1021.0 |
| 20260831042300 | 70 | 349 | 3.0 | 4.0 | 0.00 | 0.00 | 0.00 | 95 | 1021.2 |
| 20260831041756 | 69 | 106 | 0.0 | 3.0 | 0.00 | 0.00 | 0.00 | 95 | 1021.0 |
| 20260831041255 | 69 | 133 | 3.0 | 4.0 | 0.00 | 0.00 | 0.00 | 95 | 1020.9 |
| 20260831040750 | 69 | 116 | 3.0 | 3.0 | 0.00 | 0.00 | 0.00 | 95 | 1021.0 |
| 20260831040249 | 69 | 112 | 1.0 | 1.0 | 0.00 | 0.00 | 0.00 | 95 | 1021.0 |
| 20260831035748 | 69 | 135 | 3.0 | 4.0 | 0.00 | 0.00 | 0.00 | 95 | 1021.2 |
| 20260831035247 | 69 | 127 | 0.0 | 0.0 | 0.00 | 0.00 | 0.00 | 94 | 1021.1 |
| 20260831034746 | 69 | 127 | 1.0 | 1.0 | 0.00 | 0.00 | 0.00 | 94 | 1021.4 |
| 20260831034242 | 69 | 127 | 0.0 | 0.0 | 0.00 | 0.00 | 0.00 | 94 | 1021.3 |
| 20260831033738 | 69 | 127 | 1.0 | 1.0 | 0.00 | 0.00 | 0.00 | 94 | 1021.4 |
| 20260831033237 | 69 | 127 | 1.0 | 1.0 | 0.00 | 0.00 | 0.00 | 94 | 1021.3 |
| 20260831032732 | 69 | 127 | 0.0 | 1.0 | 0.00 | 0.00 | 0.00 | 94 | 1021.5 |
| 20260831032227 | 69 | 127 | 0.0 | 1.0 | 0.00 | 0.00 | 0.00 | 94 | 1021.6 |
| 20260831031722 | 69 | 127 | 1.0 | 1.0 | 0.00 | 0.00 | 0.00 | 94 | 1021.4 |
| 20260831031217 | 69 | 125 | 1.0 | 1.0 | 0.00 | 0.00 | 0.00 | 93 | 1021.4 |
| 20260831030716 | 70 | 126 | 0.0 | 1.0 | 0.00 | 0.00 | 0.00 | 93 | 1021.5 |
| 20260831030214 | 70 | 112 | 0.0 | 1.0 | 0.00 | 0.00 | 0.00 | 93 | 1021.4 |
| 20260831025708 | 70 | 120 | 0.0 | 3.0 | 0.00 | 0.00 | 0.00 | 93 | 1021.5 |
| 20260831025203 | 70 | 119 | 1.0 | 1.0 | 0.00 | 0.00 | 0.00 | 92 | 1021.6 |
| 20260831024659 | 70 | 130 | 2.0 | 7.0 | 0.00 | 0.00 | 0.00 | 92 | 1021.7 |
| 20260831024157 | 70 | 124 | 1.0 | 4.0 | 0.00 | 0.00 | 0.00 | 92 | 1021.7 |
| 20260831023655 | 70 | 83 | 0.0 | 0.0 | 0.00 | 0.00 | 0.00 | 92 | 1021.9 |
| 20260831023149 | 70 | 83 | 0.0 | 0.0 | 0.00 | 0.00 | 0.00 | 92 | 1021.9 |
| 20260831022644 | 70 | 94 | 2.0 | 3.0 | 0.00 | 0.00 | 0.00 | 92 | 1021.9 |
| 20260831022134 | 70 | 110 | 1.0 | 3.0 | 0.00 | 0.00 | 0.00 | 92 | 1022.1 |
| 20260831021633 | 70 | 105 | 1.0 | 1.0 | 0.00 | 0.00 | 0.00 | 92 | 1021.8 |
| 20260831021128 | 70 | 100 | 0.0 | 0.0 | 0.00 | 0.00 | 0.00 | 93 | 1021.9 |
| 20260831020624 | 70 | 99 | 2.0 | 4.0 | 0.00 | 0.00 | 0.00 | 92 | 1021.9 |
| 20260831020119 | 71 | 112 | 2.0 | 1.0 | 0.00 | 0.00 | 0.00 | 92 | 1022.0 |
| 20260831015614 | 71 | 98 | 0.0 | 1.0 | 0.00 | 0.00 | 0.00 | 92 | 1022.2 |
| 20260831015108 | 71 | 56 | 1.0 | 3.0 | 0.00 | 0.00 | 0.00 | 91 | 1022.2 |
| 20260831014603 | 71 | 63 | 2.0 | 1.0 | 0.00 | 0.00 | 0.00 | 91 | 1022.2 |
| 20260831014059 | 71 | 68 | 2.0 | 4.0 | 0.00 | 0.00 | 0.00 | 91 | 1022.1 |
| 20260831013555 | 71 | 66 | 0.0 | 1.0 | 0.00 | 0.00 | 0.00 | 91 | 1022.2 |
| 20260831013054 | 71 | 68 | 0.0 | 1.0 | 0.00 | 0.00 | 0.00 | 92 | 1022.2 |
| 20260831012554 | 71 | 68 | 1.0 | 1.0 | 0.00 | 0.00 | 0.00 | 91 | 1022.2 |
| 20260831012049 | 71 | 62 | 0.0 | 0.0 | 0.00 | 0.00 | 0.00 | 92 | 1022.1 |
| 20260831011549 | 71 | 46 | 0.0 | 0.0 | 0.00 | 0.00 | 0.00 | 92 | 1022.1 |
| 20260831011044 | 71 | 47 | 1.0 | 1.0 | 0.00 | 0.00 | 0.00 | 91 | 1022.2 |
| 20260831010539 | 71 | 47 | 0.0 | 0.0 | 0.00 | 0.00 | 0.00 | 91 | 1022.2 |
| 20260831010036 | 71 | 46 | 0.0 | 0.0 | 0.00 | 0.00 | 0.00 | 91 | 1022.0 |
| 20260831005531 | 71 | 46 | 0.0 | 0.0 | 0.00 | 0.00 | 0.00 | 90 | 1022.1 |
| 20260831005030 | 72 | 46 | 0.0 | 1.0 | 0.00 | 0.00 | 0.00 | 90 | 1022.1 |
| 20260831004527 | 72 | 50 | 3.0 | 3.0 | 0.00 | 0.00 | 0.00 | 90 | 1022.0 |
| 20260831004022 | 72 | 22 | 0.0 | 3.0 | 0.00 | 0.00 | 0.00 | 90 | 1021.8 |
| 20260831003518 | 72 | 35 | 0.0 | 1.0 | 0.00 | 0.00 | 0.00 | 90 | 1021.8 |
| 20260831003014 | 72 | 53 | 0.0 | 3.0 | 0.00 | 0.00 | 0.00 | 90 | 1021.7 |
| 20260831002512 | 72 | 24 | 1.0 | 3.0 | 0.00 | 0.00 | 0.00 | 89 | 1021.7 |
| 20260831002008 | 72 | 58 | 4.0 | 5.0 | 0.00 | 0.00 | 0.00 | 89 | 1021.7 |
| 20260831001503 | 72 | 15 | 5.0 | 5.0 | 0.00 | 0.00 | 0.00 | 89 | 1021.4 |
| 20260831001000 | 73 | 8 | 3.0 | 3.0 | 0.00 | 0.00 | 0.00 | 89 | 1021.4 |
| 20260831000455 | 73 | 19 | 3.0 | 4.0 | 0.00 | 0.00 | 0.00 | 88 | 1021.1 |
| 20260830235953 | 73 | 27 | 2.0 | 4.0 | 0.00 | 0.00 | 0.00 | 88 | 1021.1 |
| 20260830235448 | 73 | 16 | 1.0 | 1.0 | 0.00 | 0.00 | 0.00 | 88 | 1021.0 |
| 20260830234944 | 73 | 38 | 1.0 | 3.0 | 0.00 | 0.00 | 0.00 | 87 | 1021.1 |
| 20260830234438 | 73 | 18 | 3.0 | 4.0 | 0.00 | 0.00 | 0.00 | 87 | 1020.8 |
| 20260830233934 | 74 | 26 | 2.0 | 4.0 | 0.00 | 0.00 | 0.00 | 85 | 1020.9 |
| 20260830233430 | 74 | 33 | 1.0 | 3.0 | 0.00 | 0.00 | 0.00 | 83 | 1020.6 |
| 20260830232925 | 74 | 28 | 2.0 | 3.0 | 0.00 | 0.00 | 0.00 | 81 | 1020.7 |
| 20260830232420 | 75 | 9 | 2.0 | 3.0 | 0.00 | 0.00 | 0.00 | 79 | 1020.5 |
| 20260830231917 | 74 | 28 | 0.0 | 0.0 | 0.00 | 0.00 | 0.00 | 80 | 1020.4 |
| 20260830231412 | 75 | 32 | 2.0 | 3.0 | 0.00 | 0.00 | 0.00 | 80 | 1020.5 |
| 20260830230911 | 75 | 1 | 1.0 | 1.0 | 0.00 | 0.00 | 0.00 | 78 | 1020.4 |
| 20260830230407 | 75 | 1 | 2.0 | 3.0 | 0.00 | 0.00 | 0.00 | 78 | 1020.3 |
| 20260830225906 | 75 | 5 | 4.0 | 4.0 | 0.00 | 0.00 | 0.00 | 78 | 1019.9 |
| 20260830225401 | 75 | 65 | 1.0 | 1.0 | 0.00 | 0.00 | 0.00 | 77 | 1019.8 |
| 20260830224856 | 75 | 120 | 2.0 | 3.0 | 0.00 | 0.00 | 0.00 | 78 | 1019.7 |
| 20260830224355 | 75 | 102 | 0.0 | 3.0 | 0.00 | 0.00 | 0.00 | 79 | 1019.5 |
| 20260830223852 | 75 | 127 | 4.0 | 5.0 | 0.00 | 0.00 | 0.00 | 78 | 1019.7 |
| 20260830223348 | 76 | 129 | 3.0 | 4.0 | 0.00 | 0.00 | 0.00 | 77 | 1019.8 |
| 20260830222847 | 76 | 106 | 0.0 | 1.0 | 0.00 | 0.00 | 0.00 | 79 | 1019.9 |
| 20260830222343 | 76 | 106 | 0.0 | 1.0 | 0.00 | 0.00 | 0.00 | 75 | 1020.1 |
| 20260830221838 | 76 | 106 | 1.0 | 1.0 | 0.00 | 0.00 | 0.00 | 75 | 1020.1 |
| 20260830221335 | 77 | 105 | 1.0 | 3.0 | 0.00 | 0.00 | 0.00 | 76 | 1020.1 |
| 20260830220830 | 77 | 98 | 2.0 | 1.0 | 0.00 | 0.00 | 0.00 | 72 | 1020.1 |
| 20260830220324 | 78 | 98 | 0.0 | 0.0 | 0.00 | 0.00 | 0.00 | 70 | 1020.3 |
| 20260830215822 | 78 | 98 | 0.0 | 0.0 | 0.00 | 0.00 | 0.00 | 71 | 1020.3 |
| 20260830215317 | 77 | 98 | 0.0 | 0.0 | 0.00 | 0.00 | 0.00 | 70 | 1020.2 |
| 20260830214812 | 78 | 98 | 1.0 | 1.0 | 0.00 | 0.00 | 0.00 | 73 | 1020.3 |
| 20260830214307 | 78 | 98 | 0.0 | 0.0 | 0.00 | 0.00 | 0.00 | 74 | 1020.5 |
| 20260830213806 | 78 | 98 | 0.0 | 0.0 | 0.00 | 0.00 | 0.00 | 74 | 1020.3 |
| 20260830213301 | 78 | 98 | 0.0 | 1.0 | 0.00 | 0.00 | 0.00 | 71 | 1020.3 |
| 20260830212757 | 78 | 98 | 0.0 | 0.0 | 0.00 | 0.00 | 0.00 | 74 | 1020.2 |
| 20260830212253 | 78 | 95 | 0.0 | 0.0 | 0.00 | 0.00 | 0.00 | 71 | 1020.3 |
| 20260830211752 | 78 | 95 | 0.0 | 0.0 | 0.00 | 0.00 | 0.00 | 72 | 1020.4 |
| 20260830211251 | 78 | 96 | 0.0 | 0.0 | 0.00 | 0.00 | 0.00 | 72 | 1020.5 |
| 20260830210748 | 78 | 95 | 0.0 | 0.0 | 0.00 | 0.00 | 0.00 | 73 | 1020.4 |
| 20260830210246 | 77 | 94 | 1.0 | 1.0 | 0.00 | 0.00 | 0.00 | 73 | 1020.3 |
| 20260830205744 | 77 | 125 | 2.0 | 3.0 | 0.00 | 0.00 | 0.00 | 73 | 1020.4 |
| 20260830205239 | 77 | 210 | 0.0 | 3.0 | 0.00 | 0.00 | 0.00 | 74 | 1020.5 |
| 20260830204734 | 77 | 143 | 2.0 | 3.0 | 0.00 | 0.00 | 0.00 | 74 | 1020.6 |
| 20260830204233 | 77 | 116 | 0.0 | 1.0 | 0.00 | 0.00 | 0.00 | 73 | 1020.7 |
| 20260830203729 | 77 | 115 | 1.0 | 1.0 | 0.00 | 0.00 | 0.00 | 73 | 1020.8 |
| 20260830203225 | 77 | 264 | 0.0 | 1.0 | 0.00 | 0.00 | 0.00 | 75 | 1020.6 |
| 20260830202724 | 77 | 244 | 2.0 | 3.0 | 0.00 | 0.00 | 0.00 | 75 | 1020.7 |
| 20260830202220 | 77 | 104 | 1.0 | 1.0 | 0.00 | 0.00 | 0.00 | 77 | 1020.7 |
| 20260830201719 | 77 | 104 | 2.0 | 3.0 | 0.00 | 0.00 | 0.00 | 76 | 1020.8 |
| 20260830201214 | 77 | 117 | 3.0 | 3.0 | 0.00 | 0.00 | 0.00 | 74 | 1020.8 |
| 20260830200710 | 77 | 122 | 1.0 | 1.0 | 0.00 | 0.00 | 0.00 | 75 | 1020.9 |
| 20260830200209 | 77 | 122 | 1.0 | 1.0 | 0.00 | 0.00 | 0.00 | 75 | 1021.2 |
| 20260830195704 | 77 | 105 | 1.0 | 3.0 | 0.00 | 0.00 | 0.00 | 74 | 1021.0 |
| 20260830195202 | 77 | 111 | 3.0 | 3.0 | 0.00 | 0.00 | 0.00 | 72 | 1021.2 |
| 20260830194701 | 78 | 112 | 1.0 | 3.0 | 0.00 | 0.00 | 0.00 | 72 | 1021.2 |
| 20260830194156 | 77 | 109 | 0.0 | 0.0 | 0.00 | 0.00 | 0.00 | 72 | 1021.3 |
| 20260830193650 | 77 | 77 | 0.0 | 1.0 | 0.00 | 0.00 | 0.00 | 72 | 1021.4 |
| 20260830193145 | 78 | 77 | 2.0 | 1.0 | 0.00 | 0.00 | 0.00 | 69 | 1021.3 |
| 20260830192640 | 78 | 339 | 0.0 | 0.0 | 0.00 | 0.00 | 0.00 | 68 | 1021.6 |
| 20260830192135 | 78 | 346 | 0.0 | 0.0 | 0.00 | 0.00 | 0.00 | 67 | 1021.7 |
| 20260830191631 | 78 | 351 | 0.0 | 0.0 | 0.00 | 0.00 | 0.00 | 69 | 1021.8 |
| 20260830191125 | 79 | 29 | 1.0 | 1.0 | 0.00 | 0.00 | 0.00 | 65 | 1021.9 |
| 20260830190621 | 78 | 29 | 0.0 | 1.0 | 0.00 | 0.00 | 0.00 | 66 | 1021.8 |
| 20260830190115 | 78 | 354 | 3.0 | 4.0 | 0.00 | 0.00 | 0.00 | 65 | 1021.9 |
| 20260830185609 | 78 | 58 | 1.0 | 1.0 | 0.00 | 0.00 | 0.00 | 66 | 1022.0 |
| 20260830185105 | 78 | 20 | 1.0 | 1.0 | 0.00 | 0.00 | 0.00 | 69 | 1022.2 |
| 20260830184603 | 78 | 11 | 0.0 | 4.0 | 0.00 | 0.00 | 0.00 | 66 | 1022.0 |
| 20260830184058 | 79 | 18 | 2.0 | 5.0 | 0.00 | 0.00 | 0.00 | 66 | 1022.1 |
| 20260830183552 | 78 | 1 | 0.0 | 1.0 | 0.00 | 0.00 | 0.00 | 69 | 1022.3 |
| 20260830183048 | 78 | 0 | 3.0 | 4.0 | 0.00 | 0.00 | 0.00 | 65 | 1022.2 |
| 20260830182538 | 79 | 8 | 4.0 | 5.0 | 0.00 | 0.00 | 0.00 | 64 | 1022.3 |
| 20260830182034 | 79 | 8 | 0.0 | 1.0 | 0.00 | 0.00 | 0.00 | 65 | 1022.3 |
| 20260830181530 | 78 | 356 | 2.0 | 3.0 | 0.00 | 0.00 | 0.00 | 68 | 1022.4 |
| 20260830181029 | 78 | 1 | 5.0 | 8.0 | 0.00 | 0.00 | 0.00 | 67 | 1022.4 |
| 20260830180524 | 77 | 347 | 2.0 | 1.0 | 0.00 | 0.00 | 0.00 | 69 | 1022.3 |
| 20260830180023 | 77 | 286 | 3.0 | 3.0 | 0.00 | 0.00 | 0.00 | 71 | 1022.4 |
| 20260830175522 | 77 | 357 | 4.0 | 4.0 | 0.00 | 0.00 | 0.00 | 68 | 1022.4 |
| 20260830175018 | 77 | 6 | 2.0 | 3.0 | 0.00 | 0.00 | 0.00 | 70 | 1022.5 |
| 20260830174513 | 77 | 1 | 5.0 | 5.0 | 0.00 | 0.00 | 0.00 | 68 | 1022.7 |
| 20260830174008 | 77 | 352 | 3.0 | 5.0 | 0.00 | 0.00 | 0.00 | 69 | 1022.6 |
| 20260830173503 | 77 | 295 | 2.0 | 3.0 | 0.00 | 0.00 | 0.00 | 69 | 1022.7 |
| 20260830172958 | 77 | 5 | 1.0 | 4.0 | 0.00 | 0.00 | 0.00 | 69 | 1022.8 |
| 20260830172455 | 77 | 223 | 0.0 | 3.0 | 0.00 | 0.00 | 0.00 | 71 | 1022.8 |
| 20260830171950 | 77 | 358 | 1.0 | 1.0 | 0.00 | 0.00 | 0.00 | 74 | 1022.8 |
| 20260830171445 | 76 | 4 | 0.0 | 1.0 | 0.00 | 0.00 | 0.00 | 75 | 1023.0 |
| 20260830170945 | 76 | 281 | 0.0 | 1.0 | 0.00 | 0.00 | 0.00 | 76 | 1023.0 |
| 20260830170440 | 75 | 296 | 0.0 | 0.0 | 0.00 | 0.00 | 0.00 | 78 | 1023.4 |
| 20260830165938 | 74 | 265 | 3.0 | 4.0 | 0.00 | 0.00 | 0.00 | 75 | 1023.1 |
| 20260830165435 | 75 | 267 | 2.0 | 3.0 | 0.00 | 0.00 | 0.00 | 77 | 1023.4 |
| 20260830164931 | 75 | 259 | 2.0 | 3.0 | 0.00 | 0.00 | 0.00 | 76 | 1023.4 |
| 20260830164426 | 75 | 6 | 1.0 | 1.0 | 0.00 | 0.00 | 0.00 | 78 | 1023.7 |
| 20260830163922 | 75 | 13 | 2.0 | 3.0 | 0.00 | 0.00 | 0.00 | 79 | 1023.4 |
| 20260830163419 | 75 | 8 | 0.0 | 1.0 | 0.00 | 0.00 | 0.00 | 79 | 1023.4 |
| 20260830162918 | 75 | 8 | 0.0 | 1.0 | 0.00 | 0.00 | 0.00 | 79 | 1023.4 |
| 20260830162414 | 75 | 12 | 1.0 | 3.0 | 0.00 | 0.00 | 0.00 | 79 | 1023.5 |
| 20260830161908 | 75 | 359 | 1.0 | 3.0 | 0.00 | 0.00 | 0.00 | 78 | 1023.4 |
| 20260830161408 | 76 | 17 | 0.0 | 0.0 | 0.00 | 0.00 | 0.00 | 80 | 1023.1 |
| 20260830160903 | 76 | 353 | 0.0 | 1.0 | 0.00 | 0.00 | 0.00 | 78 | 1023.3 |
| 20260830160359 | 75 | 351 | 0.0 | 0.0 | 0.00 | 0.00 | 0.00 | 75 | 1023.3 |
| 20260830155854 | 75 | 351 | 0.0 | 0.0 | 0.00 | 0.00 | 0.00 | 76 | 1023.1 |
| 20260830155350 | 76 | 17 | 0.0 | 1.0 | 0.00 | 0.00 | 0.00 | 74 | 1022.9 |
| 20260830154845 | 75 | 17 | 0.0 | 0.0 | 0.00 | 0.00 | 0.00 | 74 | 1022.9 |
| 20260830154341 | 75 | 17 | 0.0 | 0.0 | 0.00 | 0.00 | 0.00 | 75 | 1022.9 |
| 20260830153838 | 75 | 17 | 0.0 | 0.0 | 0.00 | 0.00 | 0.00 | 79 | 1022.9 |
| 20260830153333 | 75 | 17 | 0.0 | 0.0 | 0.00 | 0.00 | 0.00 | 79 | 1022.9 |
| 20260830152831 | 75 | 16 | 1.0 | 1.0 | 0.00 | 0.00 | 0.00 | 79 | 1023.0 |
| 20260830152326 | 75 | 16 | 0.0 | 0.0 | 0.00 | 0.00 | 0.00 | 77 | 1023.0 |
| 20260830151821 | 74 | 16 | 0.0 | 0.0 | 0.00 | 0.00 | 0.00 | 78 | 1023.1 |
| 20260830151320 | 75 | 358 | 1.0 | 1.0 | 0.00 | 0.00 | 0.00 | 76 | 1023.0 |
| 20260830150815 | 75 | 285 | 0.0 | 0.0 | 0.00 | 0.00 | 0.00 | 75 | 1023.0 |
| 20260830150314 | 74 | 285 | 0.0 | 1.0 | 0.00 | 0.00 | 0.00 | 76 | 1022.9 |
| 20260830145809 | 74 | 285 | 0.0 | 1.0 | 0.00 | 0.00 | 0.00 | 75 | 1022.8 |
| 20260830145306 | 74 | 284 | 1.0 | 1.0 | 0.00 | 0.00 | 0.00 | 74 | 1022.8 |
| 20260830144759 | 74 | 285 | 0.0 | 1.0 | 0.00 | 0.00 | 0.00 | 74 | 1022.7 |
| 20260830144255 | 74 | 285 | 0.0 | 0.0 | 0.00 | 0.00 | 0.00 | 75 | 1022.6 |
| 20260830143751 | 75 | 285 | 0.0 | 0.0 | 0.00 | 0.00 | 0.00 | 74 | 1022.6 |
| 20260830143250 | 74 | 285 | 0.0 | 0.0 | 0.00 | 0.00 | 0.00 | 75 | 1022.5 |
| 20260830142745 | 74 | 285 | 0.0 | 3.0 | 0.00 | 0.00 | 0.00 | 74 | 1022.5 |
| 20260830142240 | 74 | 285 | 1.0 | 1.0 | 0.00 | 0.00 | 0.00 | 74 | 1022.2 |
| 20260830141735 | 74 | 270 | 0.0 | 0.0 | 0.00 | 0.00 | 0.00 | 74 | 1022.3 |
| 20260830141230 | 74 | 270 | 0.0 | 1.0 | 0.00 | 0.00 | 0.00 | 73 | 1022.1 |
| 20260830140724 | 74 | 271 | 1.0 | 1.0 | 0.00 | 0.00 | 0.00 | 74 | 1021.9 |
| 20260830140220 | 74 | 260 | 1.0 | 1.0 | 0.00 | 0.00 | 0.00 | 72 | 1021.9 |
| 20260830135709 | 74 | 259 | 1.0 | 1.0 | 0.00 | 0.00 | 0.00 | 72 | 1021.7 |
| 20260830135204 | 74 | 287 | 2.0 | 7.0 | 0.00 | 0.00 | 0.00 | 71 | 1021.9 |